Zurück zum Katalog

FENGYUN 1C DEB

AktivPO
NORAD 29741·DEBRIS·🇨🇳 China

Gestartet May 10, 1999 von Taiyuan Satellite Launch Center

Loading…

Nächste Überflüge (nächste 24 Stunden)

TLE

AktuellSource: Space-Track

Epoche: Sep 14, 2026, 22:58 UTC

1 29741U 99025AF  26257.95726789  .00001276  00000-0  32807-2 0  9991
2 29741  99.1884  59.1346 1024873 241.2539 283.7248 12.01732057555000

Verfolge FENGYUN 1C DEB in Echtzeit mit AllMySat

Download on the App Store